星链-31924 (STARLINK-31924 )

导读

STARLINK-31924是美国于北京时间2024年5月28日8时发射的星链卫星,隶属于SpaceX公司的星链星座项目。星链项目旨在构建全球卫星互联网星座,该卫星入轨后将为全球偏远地区、海上与空中用户提供低延迟高速网络接入,进一步拓展星链星座的全球覆盖范围与服务能力。

基本信息
目录编号:
59904
目录名称:
STARLINK-31924
国际标识:
2024-100V
轨道中心:
EARTH
卫星名称:
星链-31924
卫星全名:
星链-31924 (STARLINK-31924 )
卫星状态:
在轨 (已飞行829 天)
发射日期:
2024-05-28 UTC
国别 :
美国 (US)
星等 :
--
轨道信息
数据来源 国际轨道数据
星历时间: 2026-09-03T15:34:29+0800
1天前
查看轨道信息
半长轴: 6861.201km
偏心率: 0.0001002
轨道倾角: 43.001°
近地点辐角 273.815°
升交点赤经 202.154°
平近点角 86.258°
近地点: 482.376km
远地点: 483.752km
周期: 94.267分钟
每日圈数: 15.275751
详细信息
固有亮度:
5
最大亮度:
1.5
卫星平台:
Starlink v2.0 mini
覆盖范围:
全球
运营商:
太空探索技术公司
运营商所在国:
美国
制造商(研发单位):
太空探索技术公司
制造商所在国:
美国
使用方式:
暂无
卫星简介
星链(Starlink)计划是由太空探索技术公司(SpaceX)提出的一个巨型低轨卫星互联网星座项目,计划在2019年至2024年间在太空搭建由约1.2万颗卫星组成的“星链”网络,其中1584颗将部署在地球上空550千米处的近地轨道,并从2020年开始工作。该卫星仍在工作。
2D轨道图
3D轨道图
轨道高度分析图
轨道倾角分析图
轨道综合分析图
查看轨道综合分析图
交会数据列表
事件ID 空间交会对象 最接近时刻(TCA) 交会距离 交会风险概率(CRP) 交会风险指数(CRI) 操作
CDM_260904-211405-990406-959721
2026-09-04T
21:14:47+0000
0.772 km
远距离
5.282337E-5 中风险 0.69
CDM_260827-180505-990406-332621
2026-08-27T
18:05:12+0000
0.836 km
远距离
3.123025E-5 中风险 0.65
CDM_260904-211003-913305-990421
AIST 2 (39133)
2026-09-04T
21:10:07+0000
2.964 km
极远距离
1.217321E-6 低风险 0.37
CDM_260831-013505-284005-990422
2026-08-31T
01:35:25+0000
2.682 km
极远距离
1.031931E-6 低风险 0.35